AAL1153 KPBI-KDCA

Flight info

Callsign AAL1153
Flight time N/A
Altitude 37000
Route SLIDZ3 LENDS GRUBR Y299 SEELO GARIC RANAY TANJA WAVES CAPSS4
Aircraft B738/M-SDE2E3FGHIRWXY/LB1

Departure

Time 2026-04-26 22:16
Airport Palm Beach International Airport (KPBI)

Arrival

Time N/A
Airport Ronald Reagan Washington National Airport (KDCA)
Time Latitude Longitude Altitude Speed Heading
2026-04-26 21:41 26.68644 -80.08896 27 ft 0 kts 274°
2026-04-26 21:55 26.68643 -80.08887 27 ft 4 kts 272°
2026-04-26 21:55 26.68644 -80.08857 27 ft 4 kts 257°
2026-04-26 21:55 26.68654 -80.08831 27 ft 4 kts 219°
2026-04-26 21:56 26.68669 -80.08825 27 ft 1 kts 156°
2026-04-26 21:56 26.68670 -80.08825 27 ft 1 kts 156°
2026-04-26 22:05 26.68662 -80.08821 27 ft 7 kts 156°
2026-04-26 22:05 26.68595 -80.08778 27 ft 12 kts 157°
2026-04-26 22:06 26.68532 -80.08770 29 ft 0 kts 182°
2026-04-26 22:08 26.68531 -80.08770 29 ft 0 kts 182°
2026-04-26 22:09 26.68528 -80.08770 26 ft 3 kts 182°
2026-04-26 22:09 26.68468 -80.08768 27 ft 10 kts 160°
2026-04-26 22:09 26.68435 -80.08708 26 ft 11 kts 96°
2026-04-26 22:09 26.68393 -80.08629 29 ft 13 kts 166°
2026-04-26 22:10 26.68322 -80.08648 29 ft 7 kts 227°
2026-04-26 22:10 26.68324 -80.08699 28 ft 15 kts 281°
2026-04-26 22:10 26.68341 -80.08845 24 ft 22 kts 275°
2026-04-26 22:10 26.68351 -80.09021 25 ft 23 kts 272°
2026-04-26 22:11 26.68358 -80.09195 25 ft 22 kts 272°
2026-04-26 22:11 26.68366 -80.09364 26 ft 21 kts 272°
2026-04-26 22:11 26.68373 -80.09528 29 ft 21 kts 275°
2026-04-26 22:11 26.68378 -80.09687 32 ft 20 kts 269°
2026-04-26 22:12 26.68384 -80.09842 32 ft 20 kts 275°
2026-04-26 22:12 26.68393 -80.09992 31 ft 19 kts 274°
2026-04-26 22:12 26.68399 -80.10135 32 ft 18 kts 272°
2026-04-26 22:12 26.68406 -80.10275 29 ft 18 kts 274°
2026-04-26 22:13 26.68413 -80.10410 27 ft 17 kts 272°
2026-04-26 22:13 26.68419 -80.10540 24 ft 16 kts 272°
2026-04-26 22:13 26.68422 -80.10666 24 ft 16 kts 272°
2026-04-26 22:13 26.68420 -80.10784 22 ft 9 kts 248°
2026-04-26 22:14 26.68416 -80.10792 21 ft 0 kts 234°
2026-04-26 22:14 26.68398 -80.10812 21 ft 8 kts 217°
2026-04-26 22:14 26.68342 -80.10818 21 ft 8 kts 156°
2026-04-26 22:15 26.68320 -80.10770 21 ft 0 kts 94°
2026-04-26 22:15 26.68309 -80.10574 24 ft 66 kts 92°
2026-04-26 22:15 26.68270 -80.09751 33 ft 144 kts 93°
2026-04-26 22:16 26.68252 -80.08421 334 ft 191 kts 99°
2026-04-26 22:16 26.68175 -80.06869 1005 ft 213 kts 93°
2026-04-26 22:16 26.68315 -80.05128 1515 ft 238 kts 76°
2026-04-26 22:16 26.68973 -80.03395 2022 ft 246 kts 65°
2026-04-26 22:17 26.69788 -80.01676 2491 ft 258 kts 64°
2026-04-26 22:17 26.70638 -79.99902 2976 ft 259 kts 63°
2026-04-26 22:17 26.71486 -79.98120 3457 ft 260 kts 62°
2026-04-26 22:17 26.72505 -79.96436 3937 ft 264 kts 50°
2026-04-26 22:18 26.73708 -79.94869 4447 ft 265 kts 46°
2026-04-26 22:18 26.74941 -79.93322 4953 ft 268 kts 47°
2026-04-26 22:18 26.76191 -79.91753 5454 ft 272 kts 47°
2026-04-26 22:18 26.77453 -79.90154 5926 ft 274 kts 46°
2026-04-26 22:19 26.78709 -79.88550 6421 ft 274 kts 47°
2026-04-26 22:19 26.79967 -79.86935 6898 ft 275 kts 47°
2026-04-26 22:19 26.81219 -79.85321 7372 ft 276 kts 47°
2026-04-26 22:19 26.82483 -79.83687 7862 ft 278 kts 47°
2026-04-26 22:20 26.83754 -79.82041 8354 ft 281 kts 47°
2026-04-26 22:20 26.84608 -79.80935 8689 ft 283 kts 46°
2026-04-26 22:20 26.86340 -79.78686 9380 ft 287 kts 46°
2026-04-26 22:20 26.87629 -79.77012 9895 ft 289 kts 46°
2026-04-26 22:21 26.88968 -79.75273 10291 ft 298 kts 46°
2026-04-26 22:21 26.90372 -79.73455 10482 ft 325 kts 46°
2026-04-26 22:21 26.91911 -79.71459 10668 ft 351 kts 46°
2026-04-26 22:21 26.93629 -79.69384 10875 ft 372 kts 41°
2026-04-26 22:22 26.95549 -79.67366 11393 ft 382 kts 40°
2026-04-26 22:22 26.97519 -79.65355 12098 ft 385 kts 39°
2026-04-26 22:22 26.99504 -79.63316 12845 ft 387 kts 40°
2026-04-26 22:22 27.01480 -79.61252 13539 ft 391 kts 40°
2026-04-26 22:23 27.03475 -79.59150 14153 ft 395 kts 40°
2026-04-26 22:23 27.05480 -79.57030 14745 ft 398 kts 40°
2026-04-26 22:23 27.07510 -79.54884 15348 ft 401 kts 40°
2026-04-26 22:23 27.09545 -79.52733 15939 ft 405 kts 40°
2026-04-26 22:24 27.11598 -79.50563 16505 ft 408 kts 40°
2026-04-26 22:24 27.13667 -79.48374 17086 ft 411 kts 41°
2026-04-26 22:24 27.15759 -79.46159 17672 ft 414 kts 41°
2026-04-26 22:24 27.17833 -79.43963 18219 ft 417 kts 41°
2026-04-26 22:25 27.19950 -79.41719 18682 ft 420 kts 41°
2026-04-26 22:25 27.22114 -79.39424 19126 ft 424 kts 41°
2026-04-26 22:25 27.24238 -79.37170 19569 ft 427 kts 41°
2026-04-26 22:25 27.26439 -79.34833 20043 ft 430 kts 41°
2026-04-26 22:26 27.28623 -79.32512 20482 ft 433 kts 41°
2026-04-26 22:26 27.30796 -79.30202 20915 ft 436 kts 41°
2026-04-26 22:26 27.33009 -79.27848 21347 ft 439 kts 41°
2026-04-26 22:26 27.35237 -79.25477 21771 ft 443 kts 41°
2026-04-26 22:27 27.37482 -79.23087 22178 ft 446 kts 41°
2026-04-26 22:27 27.39740 -79.20680 22594 ft 449 kts 41°
2026-04-26 22:27 27.42014 -79.18256 22988 ft 452 kts 41°
2026-04-26 22:27 27.44304 -79.15813 23385 ft 455 kts 41°
2026-04-26 22:28 27.46607 -79.13355 23727 ft 457 kts 41°
2026-04-26 22:28 27.48921 -79.10883 24054 ft 460 kts 41°
2026-04-26 22:28 27.51247 -79.08397 24379 ft 462 kts 41°
2026-04-26 22:28 27.53558 -79.05925 24697 ft 464 kts 41°
2026-04-26 22:29 27.55930 -79.03387 25038 ft 466 kts 40°
2026-04-26 22:29 27.58260 -79.00890 25350 ft 468 kts 40°
2026-04-26 22:29 27.60624 -78.98357 25629 ft 471 kts 40°
2026-04-26 22:29 27.63031 -78.95777 25937 ft 474 kts 40°
2026-04-26 22:30 27.65416 -78.93263 26211 ft 475 kts 36°
2026-04-26 22:30 27.68245 -78.91309 26461 ft 469 kts 19°
2026-04-26 22:30 27.71314 -78.90368 26782 ft 462 kts
2026-04-26 22:30 27.74512 -78.89920 27112 ft 463 kts
2026-04-26 22:31 27.77721 -78.89515 27363 ft 465 kts
2026-04-26 22:31 27.80945 -78.89114 27610 ft 467 kts
2026-04-26 22:31 27.84177 -78.88701 27876 ft 469 kts
2026-04-26 22:31 27.87427 -78.88271 28150 ft 471 kts
2026-04-26 22:32 27.90692 -78.87825 28414 ft 472 kts
2026-04-26 22:32 27.93953 -78.87370 28814 ft 470 kts
2026-04-26 22:32 27.97178 -78.86914 29397 ft 465 kts
2026-04-26 22:32 28.00376 -78.86460 29905 ft 462 kts
2026-04-26 22:33 28.03562 -78.86008 30251 ft 461 kts
2026-04-26 22:33 28.09926 -78.85109 30947 ft 459 kts
2026-04-26 22:33 28.13083 -78.84662 31380 ft 456 kts
2026-04-26 22:34 28.16219 -78.84218 31805 ft 453 kts
2026-04-26 22:34 28.19339 -78.83776 32186 ft 451 kts
2026-04-26 22:34 28.22447 -78.83336 32592 ft 449 kts
2026-04-26 22:34 28.24490 -78.83047 32886 ft 446 kts
2026-04-26 22:35 28.27564 -78.82611 33286 ft 444 kts
2026-04-26 22:35 28.30629 -78.82177 33605 ft 444 kts
2026-04-26 22:35 28.33693 -78.81744 33904 ft 444 kts
2026-04-26 22:35 28.36752 -78.81310 34206 ft 442 kts
2026-04-26 22:36 28.39799 -78.80877 34522 ft 441 kts
2026-04-26 22:36 28.42838 -78.80445 34805 ft 440 kts
2026-04-26 22:36 28.45871 -78.80014 35069 ft 439 kts
2026-04-26 22:36 28.48906 -78.79583 35344 ft 438 kts
2026-04-26 22:37 28.51917 -78.79153 35763 ft 433 kts
2026-04-26 22:37 28.54891 -78.78728 36182 ft 429 kts
2026-04-26 22:37 28.57851 -78.78306 36439 ft 429 kts
2026-04-26 22:37 28.60813 -78.77885 36622 ft 429 kts
2026-04-26 22:38 28.63750 -78.77468 36797 ft 431 kts
2026-04-26 22:38 28.66717 -78.77046 36954 ft 432 kts
2026-04-26 22:38 28.69715 -78.76619 36947 ft 434 kts
2026-04-26 22:39 28.75706 -78.75762 36952 ft 432 kts
2026-04-26 22:39 28.81629 -78.74911 36963 ft 426 kts
2026-04-26 22:40 28.87481 -78.74072 36953 ft 421 kts
2026-04-26 22:40 28.93287 -78.73240 36960 ft 421 kts
2026-04-26 22:41 28.99138 -78.72405 36966 ft 428 kts
2026-04-26 22:41 29.05076 -78.71553 36955 ft 431 kts
2026-04-26 22:42 29.11000 -78.70698 36960 ft 432 kts
2026-04-26 22:42 29.16965 -78.69837 36954 ft 431 kts
2026-04-26 22:43 29.22906 -78.68979 36959 ft 430 kts
2026-04-26 22:43 29.28830 -78.68121 36956 ft 427 kts
2026-04-26 22:44 29.34714 -78.67273 36974 ft 425 kts
2026-04-26 22:44 29.40580 -78.66434 36960 ft 424 kts
2026-04-26 22:45 29.46436 -78.65611 36954 ft 424 kts
2026-04-26 22:45 29.52254 -78.64794 36955 ft 423 kts
2026-04-26 22:46 29.58102 -78.63970 36955 ft 424 kts
2026-04-26 22:46 29.63965 -78.63142 36976 ft 424 kts
2026-04-26 22:47 29.69839 -78.62311 36956 ft 426 kts
2026-04-26 22:47 29.75730 -78.61477 36957 ft 427 kts
2026-04-26 22:48 29.81644 -78.60638 36951 ft 428 kts
2026-04-26 22:48 29.87562 -78.59797 36954 ft 429 kts
2026-04-26 22:49 29.93460 -78.58958 36963 ft 430 kts
2026-04-26 22:49 29.99409 -78.58111 36963 ft 431 kts
2026-04-26 22:50 30.05371 -78.57261 36953 ft 432 kts
2026-04-26 22:50 30.11339 -78.56409 36953 ft 432 kts
2026-04-26 22:51 30.17312 -78.55555 36954 ft 432 kts
2026-04-26 22:51 30.23277 -78.54698 36953 ft 432 kts
2026-04-26 22:52 30.29232 -78.53841 36956 ft 431 kts
2026-04-26 22:52 30.35196 -78.52982 36956 ft 431 kts
2026-04-26 22:53 30.41109 -78.52129 36953 ft 431 kts
2026-04-26 22:53 30.47058 -78.51217 36949 ft 431 kts
2026-04-26 22:54 30.53034 -78.50237 36957 ft 431 kts
2026-04-26 22:54 30.58962 -78.49265 36952 ft 430 kts
2026-04-26 22:55 30.64841 -78.48308 36954 ft 429 kts
2026-04-26 22:55 30.70758 -78.47348 36952 ft 428 kts
2026-04-26 22:56 30.76663 -78.46389 36952 ft 429 kts
2026-04-26 22:56 30.82568 -78.45429 36956 ft 428 kts
2026-04-26 22:57 30.88471 -78.44469 36959 ft 428 kts
2026-04-26 22:57 30.94362 -78.43509 36956 ft 428 kts
2026-04-26 22:58 31.00258 -78.42547 36971 ft 428 kts
2026-04-26 22:58 31.06157 -78.41583 36963 ft 428 kts
2026-04-26 22:59 31.12024 -78.40624 36959 ft 429 kts
2026-04-26 22:59 31.17944 -78.39654 36952 ft 429 kts
2026-04-26 23:00 31.23869 -78.38683 36956 ft 430 kts
2026-04-26 23:00 31.29794 -78.37710 36973 ft 430 kts
2026-04-26 23:01 31.35731 -78.36734 36954 ft 431 kts
2026-04-26 23:01 31.41680 -78.35754 36950 ft 432 kts
2026-04-26 23:02 31.47639 -78.34772 36952 ft 433 kts
2026-04-26 23:02 31.53604 -78.33787 36952 ft 433 kts
2026-04-26 23:03 31.59562 -78.32803 36967 ft 435 kts
2026-04-26 23:03 31.65555 -78.31812 36967 ft 436 kts
2026-04-26 23:04 31.71583 -78.30813 36962 ft 438 kts
2026-04-26 23:04 31.77622 -78.29811 36959 ft 439 kts
2026-04-26 23:05 31.83679 -78.28804 36963 ft 441 kts
2026-04-26 23:05 31.89765 -78.27792 36969 ft 442 kts
2026-04-26 23:06 31.95863 -78.26775 36966 ft 443 kts
2026-04-26 23:06 32.01975 -78.25755 36967 ft 444 kts
2026-04-26 23:07 32.08059 -78.24821 37011 ft 443 kts 359°
2026-04-26 23:07 32.14204 -78.23948 36979 ft 445 kts 359°
2026-04-26 23:08 32.20359 -78.23068 36966 ft 445 kts 359°
2026-04-26 23:08 32.26522 -78.22173 36968 ft 446 kts 359°
2026-04-26 23:09 32.32673 -78.21274 36972 ft 446 kts 360°
2026-04-26 23:09 32.38845 -78.20370 36980 ft 447 kts 360°
2026-04-26 23:10 32.45024 -78.19464 36974 ft 447 kts 360°
2026-04-26 23:10 32.51199 -78.18557 36980 ft 448 kts 360°
2026-04-26 23:11 32.57387 -78.17647 36983 ft 448 kts 360°
2026-04-26 23:11 32.63549 -78.16741 36988 ft 449 kts
2026-04-26 23:12 32.69764 -78.15824 36990 ft 450 kts
2026-04-26 23:12 32.75971 -78.14908 36999 ft 450 kts
2026-04-26 23:13 32.82195 -78.13987 36993 ft 450 kts
2026-04-26 23:13 32.88414 -78.13066 37000 ft 450 kts
2026-04-26 23:14 32.94633 -78.12144 37010 ft 450 kts
2026-04-26 23:14 33.00850 -78.11221 36997 ft 450 kts
2026-04-26 23:15 33.07038 -78.10301 36997 ft 450 kts
2026-04-26 23:15 33.13252 -78.09376 37024 ft 450 kts
2026-04-26 23:16 33.19477 -78.08448 37015 ft 450 kts
2026-04-26 23:16 33.25694 -78.07519 37008 ft 450 kts
2026-04-26 23:17 33.31901 -78.06591 37006 ft 450 kts
2026-04-26 23:17 33.38117 -78.05660 37043 ft 449 kts
2026-04-26 23:18 33.44331 -78.04728 37028 ft 450 kts
2026-04-26 23:18 33.50545 -78.03795 37021 ft 450 kts
2026-04-26 23:19 33.56718 -78.02866 37023 ft 450 kts
2026-04-26 23:19 33.62933 -78.01930 37021 ft 450 kts
2026-04-26 23:20 33.69159 -78.00992 37034 ft 451 kts
2026-04-26 23:20 33.75398 -78.00049 37036 ft 451 kts
2026-04-26 23:21 33.81635 -77.99104 37041 ft 452 kts
2026-04-26 23:21 33.86814 -77.98320 37046 ft 452 kts
2026-04-26 23:22 33.93062 -77.97512 37051 ft 450 kts 359°
2026-04-26 23:22 33.99313 -77.96869 37048 ft 450 kts 359°
2026-04-26 23:23 34.05561 -77.96223 37045 ft 451 kts 359°
2026-04-26 23:23 34.11808 -77.95550 37071 ft 451 kts 359°
2026-04-26 23:24 34.18072 -77.94864 37074 ft 454 kts 359°
2026-04-26 23:24 34.24340 -77.94174 37070 ft 455 kts 359°
2026-04-26 23:25 34.30660 -77.93475 37065 ft 456 kts 359°
2026-04-26 23:25 34.36982 -77.92776 37064 ft 456 kts 359°
2026-04-26 23:26 34.43308 -77.92075 37065 ft 456 kts 360°
2026-04-26 23:26 34.49627 -77.91375 37080 ft 455 kts 360°
2026-04-26 23:27 34.55893 -77.90680 37087 ft 454 kts 360°
2026-04-26 23:27 34.62183 -77.89981 37089 ft 453 kts 360°
2026-04-26 23:28 34.68461 -77.89282 37097 ft 453 kts
2026-04-26 23:28 34.74730 -77.88584 37091 ft 452 kts
2026-04-26 23:29 34.80988 -77.87885 37091 ft 451 kts
2026-04-26 23:29 34.87242 -77.87186 37106 ft 450 kts
2026-04-26 23:30 34.93482 -77.86488 37112 ft 450 kts
2026-04-26 23:30 34.99720 -77.85788 37113 ft 450 kts
2026-04-26 23:31 35.05954 -77.85088 37110 ft 450 kts
2026-04-26 23:31 35.12199 -77.84386 37107 ft 450 kts
2026-04-26 23:32 35.18426 -77.83685 37108 ft 450 kts
2026-04-26 23:32 35.24632 -77.82984 37108 ft 450 kts
2026-04-26 23:33 35.30866 -77.82279 37109 ft 450 kts
2026-04-26 23:33 35.37100 -77.81574 37113 ft 450 kts
2026-04-26 23:34 35.43329 -77.80868 37115 ft 450 kts
2026-04-26 23:34 35.49572 -77.80000 37120 ft 451 kts
2026-04-26 23:35 35.55790 -77.78863 37120 ft 452 kts
2026-04-26 23:35 35.61969 -77.77725 37119 ft 452 kts
2026-04-26 23:36 35.68196 -77.76615 37122 ft 452 kts
2026-04-26 23:36 35.74426 -77.75521 37122 ft 452 kts
2026-04-26 23:37 35.80654 -77.74430 37131 ft 452 kts
2026-04-26 23:37 35.86882 -77.73336 37139 ft 452 kts
2026-04-26 23:38 35.93110 -77.72239 37148 ft 452 kts
2026-04-26 23:38 35.99335 -77.71141 37135 ft 452 kts
2026-04-26 23:39 36.05561 -77.70041 37141 ft 451 kts
2026-04-26 23:39 36.11783 -77.68940 37156 ft 451 kts